Location: Buisson
(44.2787°N, 4.9969°E)
Time: 09:41:33
(UTC+00:00)

X-37B - Pass Details

Date: 29 September 2021
Orbit: 385 x 389 km, 45.0° (Epoch: 17 October)

Event Time Altitude Azimuth Distance (km) Brightness Sun altitude
Exits shadow 04:35:01 19° 280° (W) 1,006 2.1 -11.6°
Maximum altitude 04:37:11 88° 11° (N) 392 0.5 -11.2°
Drops below altitude 10° 04:40:23 10° 100° (E) 1,413 4.8 -10.7°
Sets 04:42:27 0° 101° (E) 2,267 6.1 -10.3°
